Weather History for Alice, TX

Change the Weather History Date:

Friday, November 22, 2013

  Actual Average Record
Temperature  
Mean Temperature 59 °F -  
Max Temperature 77 °F 72 °F 88 °F (2010)
Min Temperature 41 °F 52 °F 41 °F (2013)
Degree Days  
Heating Degree Days 6    
Growing Degree Days 9 (Base 50)    
Moisture  
Dew Point 61 °F    
Average Humidity 94    
Maximum Humidity 100    
Minimum Humidity 87    
Precipitation  
Precipitation 0.45 in - - ()
Sea Level Pressure  
Sea Level Pressure 30.13 in    
Wind  
Wind Speed 8 mph (NE)    
Max Wind Speed 25 mph    
Max Gust Speed 34 mph    
Visibility 7 miles    
Events Fog , Rain    
Averages and records for this station are not official NWS values.
T = Trace of Precipitation, MM = Missing Value Source: NWS Daily Summary

Daily Weather History Graph

Daily Weather History Graph

Search for Another Location

Airport:

Trip Planner

Search our weather history database for the weather conditions in past years. The results will help you decide how hot, cold, wet, or windy it might be!

Date:

Astronomy

Nov. 22, 2013 Rise Set
Actual Time 6:58 AM CST 5:37 PM CST
Civil Twilight 6:33 AM CST 6:02 PM CST
Nautical Twilight 6:05 AM CST 6:31 PM CST
Astronomical Twilight 5:37 AM CST 6:59 PM CST
Moon 10:04 PM CST (11/22) 10:48 AM CST (11/22)
Length of Visible Light 11h 28m
Length of Day
10h 38m
Waning Gibbous, 78% of the Moon is Illuminated
Nov 22
Waning Gibbous
Nov 25
Last Quarter
Dec 2
New
Dec 9
First Quarter
Dec 17
Full

Hourly Weather History & Observations

Time (CST) Temp. Windchill Dew Point Humidity Pressure Visibility Wind Dir Wind Speed Gust Speed Precip Events Conditions
12:43 AM 75.2 °F - 73.4 °F 94% 30.02 in 10.0 mi SE 8.1 mph - N/A   Overcast
12:53 AM 75.0 °F - 73.0 °F 94% 30.01 in 10.0 mi SE 5.8 mph - N/A   Overcast
1:27 AM 75.2 °F - 73.4 °F 94% 30.02 in 10.0 mi SE 6.9 mph - N/A   Overcast
1:34 AM 75.2 °F - 73.4 °F 94% 30.02 in 10.0 mi SE 6.9 mph - N/A   Overcast
1:53 AM 75.9 °F - 73.0 °F 91% 30.01 in 10.0 mi SE 5.8 mph - N/A   Overcast
2:37 AM 75.2 °F - 73.4 °F 94% 30.02 in 10.0 mi SE 4.6 mph - N/A   Overcast
2:53 AM 75.0 °F - 73.0 °F 94% 30.01 in 10.0 mi SE 5.8 mph - N/A   Overcast
3:04 AM 75.2 °F - 73.4 °F 94% 30.01 in 10.0 mi SE 4.6 mph - N/A   Overcast
3:12 AM 75.2 °F - 73.4 °F 94% 30.01 in 10.0 mi SE 4.6 mph - N/A   Overcast
3:49 AM 75.2 °F - 73.4 °F 94% 30.01 in 8.0 mi SE 4.6 mph - N/A   Overcast
3:53 AM 75.0 °F - 73.0 °F 94% 30.00 in 8.0 mi SE 3.5 mph - N/A   Overcast
4:53 AM 75.0 °F - 73.0 °F 94% 30.01 in 7.0 mi SE 3.5 mph - N/A   Overcast
5:53 AM 73.9 °F - 73.0 °F 97% 30.02 in 5.0 mi ESE 5.8 mph - N/A   Overcast
6:20 AM 75.2 °F - 73.4 °F 94% 30.04 in 5.0 mi ESE 5.8 mph - N/A   Overcast
6:53 AM 75.0 °F - 73.9 °F 96% 30.05 in 5.0 mi ESE 4.6 mph - N/A   Overcast
7:02 AM 75.2 °F - 73.4 °F 94% 30.06 in 5.0 mi ESE 4.6 mph - N/A   Overcast
7:12 AM 75.2 °F - 73.4 °F 94% 30.06 in 5.0 mi Calm Calm - N/A   Overcast
7:31 AM 75.2 °F - 73.4 °F 94% 30.06 in 1.8 mi Calm Calm - N/A   Overcast
7:36 AM 75.2 °F - 73.4 °F 94% 30.06 in 0.8 mi Calm Calm - N/A   Overcast
7:42 AM 73.4 °F - 73.4 °F 100% 30.07 in 0.2 mi Calm Calm - N/A Fog Fog
7:53 AM 75.0 °F - 73.9 °F 96% 30.06 in 0.2 mi Calm Calm - N/A Fog Fog
8:11 AM 75.2 °F - 73.4 °F 94% 30.08 in 0.8 mi ESE 3.5 mph - N/A   Mist
8:18 AM 75.2 °F - 73.4 °F 94% 30.08 in 2.0 mi ESE 3.5 mph - N/A   Overcast
8:37 AM 75.2 °F - 73.4 °F 94% 30.07 in 3.0 mi Calm Calm - N/A   Overcast
8:53 AM 75.0 °F - 73.9 °F 96% 30.07 in 6.0 mi Calm Calm - N/A   Overcast
9:04 AM 75.2 °F - 73.4 °F 94% 30.09 in 8.0 mi East 4.6 mph - N/A   Overcast
9:29 AM 77.0 °F - 73.4 °F 89% 30.10 in 10.0 mi NE 3.5 mph - N/A   Overcast
9:53 AM 61.0 °F - 57.9 °F 90% 30.12 in 10.0 mi North 21.9 mph 32.2 mph N/A   Overcast
10:15 AM 57.2 °F - 55.4 °F 94% 30.15 in 10.0 mi North 21.9 mph 31.1 mph N/A   Overcast
10:53 AM 54.0 °F - 52.0 °F 93% 30.16 in 4.0 mi NNE 18.4 mph 29.9 mph 0.06 in Rain Rain
11:53 AM 51.1 °F - 48.9 °F 92% 30.15 in 10.0 mi North 25.3 mph 34.5 mph 0.01 in   Overcast
12:53 PM 51.1 °F - 48.9 °F 92% 30.17 in 10.0 mi North 20.7 mph 27.6 mph N/A   Overcast
12:59 PM 50.0 °F - 48.2 °F 94% 30.16 in 1.8 mi North 24.2 mph 31.1 mph 0.18 in Rain Heavy Rain
1:14 PM 48.2 °F - 48.2 °F 100% 30.16 in 3.0 mi North 18.4 mph 28.8 mph 0.35 in Rain Rain
1:53 PM 48.9 °F - 46.9 °F 93% 30.16 in 10.0 mi North 15.0 mph 21.9 mph 0.37 in   Overcast
2:53 PM 48.9 °F - 46.9 °F 93% 30.17 in 10.0 mi NNW 18.4 mph 26.5 mph N/A   Overcast
3:53 PM 46.9 °F - 45.0 °F 93% 30.20 in 10.0 mi North 19.6 mph 26.5 mph 0.00 in Rain Light Rain
4:53 PM 46.0 °F 38.8 °F 44.1 °F 93% 30.22 in 9.0 mi North 18.4 mph 26.5 mph 0.00 in   Overcast
5:49 PM 44.6 °F 38.1 °F 44.6 °F 100% 30.24 in 2.5 mi North 13.8 mph 23.0 mph 0.01 in Rain Light Rain
5:53 PM 45.0 °F 38.5 °F 44.1 °F 97% 30.24 in 4.0 mi North 13.8 mph 23.0 mph 0.01 in Rain Light Rain
6:53 PM 45.0 °F 37.4 °F 43.0 °F 93% 30.25 in 10.0 mi NNW 18.4 mph 25.3 mph 0.00 in   Overcast
7:53 PM 44.1 °F 35.9 °F 42.1 °F 93% 30.28 in 10.0 mi North 19.6 mph 24.2 mph N/A   Overcast
8:53 PM 43.0 °F 35.1 °F 41.0 °F 93% 30.31 in 10.0 mi North 17.3 mph 23.0 mph N/A   Overcast
9:53 PM 42.1 °F 32.8 °F 39.9 °F 92% 30.32 in 10.0 mi NNW 21.9 mph 27.6 mph 0.00 in   Overcast
10:37 PM 42.8 °F 35.4 °F 39.2 °F 87% 30.33 in 10.0 mi North 15.0 mph - N/A   Overcast
10:53 PM 42.1 °F 33.6 °F 39.0 °F 89% 30.32 in 10.0 mi North 18.4 mph 23.0 mph N/A   Overcast
11:15 PM 42.8 °F 36.6 °F 39.2 °F 87% 30.31 in 10.0 mi North 11.5 mph 20.7 mph N/A   Overcast
11:43 PM 41.0 °F 32.2 °F 37.4 °F 87% 30.32 in 10.0 mi NNW 18.4 mph 27.6 mph N/A   Overcast
11:53 PM 41.0 °F 32.2 °F 39.0 °F 93% 30.33 in 10.0 mi NNW 18.4 mph 24.2 mph N/A   Overcast